Weather in Masali

Russia / Tyumen Oblast     56°04′27″N   66°34′05″E
temp.,
°C
wind,
m/s
gust,
m/s
humid.,
%
clouds,
%
prec.,
mm/h
press.,
hPa
HPBL,
m
28 september, tue
tue2823:00+5e81359100 0.0 10231531
02:00+5ene71269100 0.0 1023940
05:00+4ene7137267 0.1 1022715
08:00+3ene71367100 0.0 1022844
11:00+6ene91250100 0.0 10211505
14:00+7ene81045100 0.0 10201641
17:00+8ene61043100 0.0 10191688
20:00+5ne61268100 0.0 1020579
29 september, wed
wed2923:00+4ne61171100 0.1 1020506
02:00+3nne51176100 0.0 1020337
05:00+1nne4108980 0.0 1020253
08:00+2nne5118645 0.0 1021379
11:00+7nne675943 0.0 10211051
14:00+9nne6747100 0.0 10211787
17:00+8nne574899 0.1 10221443
20:00+5nne486695 0.0 1023405
30 september, thu
thu3023:00+5n3667100 0.0 1023343
02:00+2nnw358158 0.0 102377
05:00+1nnw358671 0.0 1024132
08:00+2nnw368165 0.0 1024235
11:00+6nnw45575 0.0 1023950
14:00+9nw45425 0.0 10221458
17:00+8wnw46405 0.0 10211106
20:00+4w3552100 0.0 102184
1 october, fri
fri123:00+3w3856100 0.0 1020142
02:00+3w497799 0.0 1019286
05:00+4w5990100 0.2 1018785
08:00+5nw5893100 0.4 1019819
11:00+5n6763100 0.4 10201090
14:00+7n67485 0.0 10211319
17:00+6nnw574670 0.0 10221580
20:00+3nnw336299 0.0 102336
2 october, sat
sat223:00+1nw226890 0.0 102434
02:000wnw377727 0.0 1024140
05:00−1nw38845 0.0 1024154
08:000nw38785 0.0 1025221
11:00+6nw585150 0.0 10251237
14:00+7nnw684325 0.0 10261545
17:00+7nnw46445 0.0 10271061
20:00+2n22595 0.0 102919